Regional Weather Roundup
Issued by NWS

Home | Current Version | Previous Version | Graphics & Text | Print | Product List | Glossary On
Versions: 1 2 3 4 5 6 7 8 9 10 11 12 13 14 15 16 17 18 19 20 21 22 23 24 25 26 27 28 29 30 31 32 33 34 35 36 37 38 39 40 41 42 43 44 45 46 47 48 49 50
000
ASUS43 KDTX 301501
RWRMI
MICHIGAN HOURLY REGIONAL WEATHER ROUNDUP
NATIONAL WEATHER SERVICE DETROIT/PONTIAC MI
1100 AM EDT SAT JUL 30 2016

NOTE: "FAIR" INDICATES FEW OR NO CLOUDS BELOW 12,000 FEET WITH NO
SIGNIFICANT WEATHER AND/OR OBSTRUCTION TO VISIBILITY.

MIZ047>049-052>055-059>063-066>070-074>076-081>083-301600-
SOUTHEAST LOWER MICHIGAN

CITY           SKY/WX    TMP DP  RH WIND       PRES   REMARKS
ADRIAN         CLOUDY    74  66  76 E8        29.98R
ALMA           CLOUDY    68  65  93 E8        30.04R
ANN ARBOR      TSTM      65  65 100 NE13      29.98S VSB 1/2
BAD AXE        CLOUDY    69  64  86 E5        30.06S
CARO           CLOUDY    67  65  95 E8        30.03S
DETROIT CITY   CLOUDY    71  65  81 NE7       29.99R
DETROIT        LGT RAIN  73  63  70 NE9       29.98S
FLINT          LGT RAIN  69  65  86 E10       30.02S
GROSSE ILE     LGT RAIN  73  66  78 NE9       29.96S
HILLSDALE      CLOUDY    67  63  86 N6        29.99S
HOWELL         RAIN      64  64  98 NE3       30.01S

CITY           SKY/WX    TMP DP  RH WIND       PRES   REMARKS
JACKSON        LGT RAIN  65  65 100 E7        30.00S
LAMBERTVILLE   PTSUNNY   77  70  78 N5        29.97R
LANSING        LGT RAIN  67  63  87 E10       30.02R
LAPEER         CLOUDY    68  63  84 E5        30.03S
MASON          RAIN      65  62  91 E3        30.01S
MONROE         CLOUDY    74  71  88 NE6       29.95R
MT. CLEMENS    PTSUNNY   73  64  73 NE8       29.98R
PONTIAC        LGT RAIN  65  63  93 N5        30.01R FOG
PORT HOPE        N/A     68  62  81 E12       30.05S
PORT HURON     CLOUDY    72  63  73 E8        30.01S
TRI CITIES     CLOUDY    69  64  84 E10       30.04R
MIDLAND        CLOUDY    69  62  78 E9        30.04R
TROY           CLOUDY    71  62  74 NE5       30.02S
SAGINAW HB     DRIZZLE   66  63  88 NE9       30.03R
$$
MIZ043>046-050>051-056>058-064>065-071>073-077>080-301600-
SOUTHWEST LOWER MICHIGAN

CITY           SKY/WX    TMP DP  RH WIND       PRES   REMARKS
BATTLE CREEK   RAIN      63  63 100 E7        30.01S
BENTON HARBOR  CLOUDY    71  65  81 MISG      29.98S
BIG RAPIDS     CLOUDY    71  63  75 NE8       30.04S
COLDWATER      CLOUDY    66  64  93 N8        30.00R
FREMONT        CLOUDY    69  64  83 E6        30.03R
HOLLAND        CLOUDY    68  63  84 E8        30.02S
GRAND RAPIDS   CLOUDY    67  63  87 E10       30.02R
IONIA          CLOUDY    67  63  86 NE5       30.01S
KALAMAZOO      HVY RAIN  66  63  90 N8        30.01R FOG
LUDINGTON      SUNNY     73  59  61 E12       30.04R
MARSHALL       RAIN      64  64  98 CALM      30.00S
MOUNT PLEASANT CLOUDY    70  62  75 E9        30.03S
MUSKEGON       PTSUNNY   73  62  68 E12       30.02S
SOUTH HAVEN    CLOUDY    66  65  97 E7        30.00R
$$
MIZ016>042-301600-
NORTHERN LOWER MICHIGAN

CITY           SKY/WX    TMP DP  RH WIND       PRES   REMARKS
ALPENA         SUNNY     74  51  44 E12       30.10S
BEAVER ISLAND  SUNNY     73  58  57 NE9       30.10S
BELLAIRE       MOSUNNY   75  52  44 NE9G16    30.08S
CADILLAC       SUNNY     70  56  61 E12       30.06S
CHARLEVOIX     SUNNY     74  52  44 E12G17    30.12S
FRANKFORT      SUNNY     74  53  47 E10       30.06S
GAYLORD        SUNNY     72  50  45 NE13G23   30.10F
GRAYLING       SUNNY     75  52  43 NE16      30.09S
HARBOR SPRINGS SUNNY     74  55  50 NE10      30.10S
HOUGHTON LAKE  SUNNY     73  55  53 NE17      30.07F
MANISTEE       SUNNY     73  58  59 E8        30.04S
OSCODA         PTSUNNY   73  60  62 NE18      30.08R
PELLSTON       SUNNY     76  53  44 E10       30.10F
ROGERS CITY    SUNNY     71  57  60 E8G16     30.12F
TRAVERSE CITY  MOSUNNY   76  52  43 E12       30.05F
$$
MIZ007>008-015-301600-
EASTERN UPPER MICHIGAN

CITY           SKY/WX    TMP DP  RH WIND       PRES   REMARKS
KINROSS        SUNNY     73  56  54 VRB3      30.12S
MACKINAC ISLAN SUNNY     71  56  58 E6        30.11S
S. S. MARIE    SUNNY     74  57  55 CALM      30.11S
$$
MIZ004>006-011>014-085-301600-
CENTRAL UPPER MICHIGAN

CITY           SKY/WX    TMP DP  RH WIND       PRES   REMARKS
MANISTIQUE     SUNNY     74  57  55 CALM      30.10S
ESCANABA       SUNNY     72  55  56 E7        30.09S
MENOMINEE      SUNNY    N/A N/A N/A E9        30.09
SAWYER-GWINN   SUNNY     70  52  52 S6        30.12F
$$
MIZ001>003-009>011-084-301600-
WESTERN UPPER MICHIGAN

CITY           SKY/WX    TMP DP  RH WIND       PRES   REMARKS
IRON MOUNTAIN  SUNNY     72  55  55 E6        30.10S
HOUGHTON       SUNNY     69  58  67 SE7       30.09F
COPPER HARBOR    N/A     72  53  51 VRB6      30.09S
IRONWOOD       SUNNY     72  57  60 S5        30.06S
$$

ABBREVIATIONS USED IN REMARKS
   TC - TEMPERATURE IN CELSIUS
  WCI - WIND CHILL INDEX
   HX - HEAT INDEX
  VSB - VISIBILITY





USA.gov is the U.S. government's official web portal to all federal, state and local government web resources and services.